NIMBUS 7

Satellite information

Favourite Embed

Satellite Type and Status

PAYLOADIN ORBIT

Key statistics

Satellite NIMBUS 7 at a glance.

Uptime

17218

Days in orbit

Revolutions

≈ 13.8

Per day

Orbit

SSO

Sun Synchronous Orbit

Inclination

99.5

Latest

Satellite identification and parameters

Extended collection of information and parameters for NIMBUS 7.

Object identification

Identified? True

Debris? False

Object name: NIMBUS 7

International designator: 1978-098A

Object number (NORAD): 11080

Object ID (CCSDS): 11080

Country: UNITED STATES OF AMERICA (US)

Current information (Y/N): Y

RCS size: LARGE

Orbital parameters

Period: 104.009 minutes

Inclination: 99.4943 deg

SMA: 7326.099 km

Apoapsis: 954.934 km

Periapsis: 940.994 km

RAAN: 225.086 deg

Eccentricy: 0.00095141

Argument of periapsis: 46.791 deg

Mean anomaly: 313.4037 deg

Mean motion: 13.84502015 rev/day

Mean motion (dot): -0.00000004 rev/day2

B* drag term: 0.000037597078 1/REarth

Two-line elements (TLE)

Creation date: Dec. 14, 2025, 3:07 a.m.

Reference frame: TEME

Reference center: EARTH

Epoch: Dec. 13, 2025, 3:47 p.m. UTC

TLE line 0: 0 NIMBUS 7

TLE line 1: 1 11080U 78098A 25347.65822622 -.00000004 00000-0 37597-4 0 9996

TLE line 2: 2 11080 99.4943 225.0860 0009514 46.7910 313.4037 13.84502015381023

Live tracking on map

Real-time ground track for satellite NIMBUS 7.

In-orbit conjunctions

A list of the most updated potential collisions computed for object NIMBUS 7.

Target Orbit TCA Probability of collision Miss distance Type
FENGYUN 1C DEB SSO 2025-02-03 02:47:28 0.0001138064 693.0 (m) DEBRIS
SL-14 R/B LEO 2024-08-09 06:06:43 0.001264182 43.0 (m) ROCKET BODY
COSMOS 1275 DEB LEO 2024-06-19 03:52:55 0.0009966641 108.0 (m) DEBRIS

Associated space launch

Research and development satellite in polar orbit

NIMBUS 7 was lifted into orbit during the mission ‘Delta 2910 | Nimbus 7’, on board a Delta 2910 space rocket.

The launch took place on Oct. 24, 1978, 8:14 a.m. from Space Launch Complex 2W.

For more information about the launch, click the button.

Launch to space Delta 2910 | Nimbus 7
Delta 2910 | Nimbus 7

Agency: N/A

Status: Launch Successful

Launch date: Oct. 24, 1978, 8:14 a.m. UTC

Rocket: Delta 2910

Launch pad: Space Launch Complex 2W

Location: Vandenberg SFB, CA, USA

...

Latest news about this satellite

There are no fresh news available about this satellite. Check back as we update our databases every day.


Newsletter sign-up

Weekly statistics, charts and insights to help you stay on top of the space industry.